QPF
0.09 0.09 0.10 0.12 0.15 0.17 0.19 0.21 0.22 0.23 0.30 0.39 0.49 0.62 0.66 0.64 0.56 0.43 0.33 0.27 0.20 0.15 0.12 0.06 0.03 0.02 0.01 0.00 0.00 0.00 0.00 0.00 0.00 0.00 0.00 0.00 0.00 0.00 0.00 0.00 0.00 0.00 0.00
0.07 0.08 0.11 0.12 0.13 0.14 0.15 0.16 0.21 0.20 0.25 0.28 0.30 0.33 0.36 0.33 0.29 0.26 0.20 0.17 0.15 0.12 0.07 0.04 0.02 0.01 0.01 0.00 0.00 0.00 0.00 0.00 0.00 0.00 0.00 0.00 0.00 0.00 0.00 0.00 0.00 0.00 0.00
0.07 0.08 0.09 0.09 0.09 0.07 0.07 0.06 0.07 0.07 0.09 0.11 0.11 0.14 0.18 0.19 0.18 0.18 0.17 0.16 0.13 0.11 0.07 0.04 0.03 0.02 0.01 0.01 0.01 0.00 0.00 0.00 0.00 0.00 0.00 0.00 0.00 0.00 0.00 0.00 0.00 0.00 0.00
0.06 0.07 0.06 0.05 0.05 0.04 0.04 0.04 0.04 0.04 0.04 0.05 0.07 0.09 0.10 0.11 0.11 0.11 0.13 0.17 0.16 0.13 0.10 0.08 0.05 0.03 0.02 0.01 0.01 0.01 0.00 0.00 0.00 0.00 0.00 0.00 0.00 0.00 0.00 0.00 0.00 0.00 0.00
0.05 0.05 0.04 0.03 0.03 0.02 0.02 0.02 0.02 0.03 0.04 0.05 0.08 0.10 0.10 0.11 0.11 0.11 0.11 0.13 0.15 0.14 0.11 0.09 0.07 0.06 0.04 0.02 0.02 0.01 0.00 0.00 0.00 0.00 0.00 0.00 0.00 0.00 0.00 0.00 0.00 0.00 0.00
0.02 0.02 0.03 0.03 0.02 0.02 0.02 0.02 0.02 0.03 0.04 0.06 0.07 0.07 0.07 0.07 0.08 0.09 0.11 0.12 0.14 0.14 0.12 0.10 0.09 0.09 0.07 0.07 0.05 0.03 0.01 0.01 0.00 0.00 0.00 0.00 0.00 0.00 0.00 0.00 0.00 0.00 0.00
0.01 0.01 0.01 0.01 0.01 0.01 0.01 0.01 0.01 0.01 0.01 0.02 0.02 0.02 0.03 0.04 0.05 0.05 0.06 0.07 0.10 0.11 0.12 0.12 0.12 0.11 0.11 0.10 0.10 0.07 0.04 0.03 0.02 0.01 0.00 0.00 0.00 0.00 0.00 0.00 0.00 0.00 0.00
0.01 0.01 0.01 0.01 0.01 0.01 0.01 0.01 0.01 0.00 0.00 0.00 0.00 0.00 0.01 0.01 0.02 0.03 0.03 0.04 0.05 0.06 0.07 0.08 0.08 0.09 0.11 0.12 0.11 0.11 0.10 0.08 0.05 0.03 0.01 0.00 0.00 0.00 0.00 0.00 0.00 0.01 0.00
0.01 0.00 0.00 0.00 0.00 0.00 0.01 0.01 0.01 0.00 0.00 0.00 0.00 0.00 0.00 0.00 0.00 0.00 0.01 0.01 0.02 0.02 0.04 0.05 0.05 0.06 0.08 0.09 0.10 0.10 0.10 0.10 0.09 0.07 0.05 0.02 0.01 0.00 0.00 0.00 0.00 0.01 0.01
0.01 0.00 0.00 0.00 0.00 0.00 0.00 0.00 0.00 0.00 0.00 0.00 0.00 0.00 0.00 0.00 0.00 0.00 0.00 0.00 0.00 0.01 0.02 0.02 0.03 0.05 0.07 0.07 0.07 0.06 0.06 0.07 0.07 0.08 0.07 0.05 0.04 0.02 0.01 0.00 0.00 0.01 0.01
0.00 0.00 0.00 0.00 0.00 0.00 0.00 0.00 0.00 0.00 0.00 0.00 0.00 0.00 0.00 0.00 0.00 0.00 0.00 0.00 0.00 0.00 0.00 0.01 0.01 0.02 0.04 0.06 0.07 0.06 0.06 0.05 0.05 0.05 0.06 0.06 0.05 0.04 0.02 0.01 0.01 0.00 0.01
0.00 0.00 0.00 0.00 0.00 0.00 0.00 0.00 0.00 0.00 0.00 0.00 0.00 0.00 0.00 0.00 0.00 0.00 0.00 0.00 0.00 0.00 0.00 0.00 0.00 0.00 0.01 0.02 0.03 0.05 0.07 0.06 0.05 0.04 0.04 0.04 0.05 0.04 0.03 0.02 0.01 0.01 0.01
0.00 0.00 0.00 0.00 0.00 0.00 0.00 0.00 0.00 0.00 0.00 0.00 0.00 0.00 0.00 0.00 0.00 0.00 0.00 0.00 0.00 0.00 0.00 0.00 0.00 0.00 0.00 0.00 0.01 0.02 0.03 0.05 0.05 0.05 0.04 0.03 0.03 0.03 0.03 0.02 0.01 0.01 0.00
0.00 0.00 0.00 0.00 0.00 0.00 0.00 0.00 0.00 0.00 0.00 0.00 0.00 0.00 0.00 0.00 0.00 0.00 0.00 0.00 0.00 0.00 0.00 0.00 0.00 0.00 0.00 0.00 0.00 0.00 0.01 0.02 0.02 0.03 0.04 0.05 0.05 0.04 0.03 0.02 0.01 0.00 0.00
0.00 0.00 0.00 0.00 0.00 0.00 0.00 0.00 0.00 0.00 0.00 0.00 0.00 0.00 0.00 0.00 0.00 0.00 0.00 0.00 0.00 0.00 0.00 0.00 0.00 0.00 0.00 0.00 0.00 0.00 0.00 0.00 0.01 0.01 0.02 0.02 0.03 0.03 0.03 0.02 0.01 0.01 0.00
0.00 0.00 0.00 0.00 0.00 0.00 0.00 0.00 0.00 0.00 0.00 0.00 0.00 0.00 0.00 0.00 0.00 0.00 0.00 0.00 0.00 0.00 0.00 0.00 0.00 0.00 0.00 0.00 0.00 0.00 0.00 0.00 0.01 0.01 0.01 0.01 0.02 0.02 0.02 0.01 0.01 0.00 0.00
0.00 0.00 0.00 0.00 0.00 0.00 0.00 0.00 0.00 0.00 0.00 0.00 0.01 0.01 0.01 0.02 0.02 0.01 0.01 0.00 0.00 0.00 0.00 0.00 0.00 0.00 0.00 0.00 0.00 0.00 0.00 0.00 0.00 0.01 0.01 0.02 0.02 0.02 0.01 0.01 0.01 0.00 0.00
0.00 0.00 0.00 0.00 0.00 0.00 0.00 0.00 0.00 0.00 0.01 0.01 0.01 0.02 0.03 0.04 0.03 0.03 0.02 0.02 0.01 0.01 0.00 0.00 0.00 0.00 0.00 0.00 0.00 0.00 0.00 0.00 0.00 0.01 0.02 0.02 0.03 0.02 0.02 0.01 0.01 0.00 0.00
0.00 0.00 0.00 0.00 0.00 0.00 0.00 0.00 0.00 0.00 0.01 0.01 0.01 0.02 0.03 0.04 0.05 0.05 0.05 0.04 0.03 0.02 0.01 0.01 0.00 0.00 0.00 0.00 0.00 0.00 0.00 0.00 0.00 0.02 0.03 0.04 0.04 0.05 0.04 0.03 0.02 0.01 0.01
0.00 0.00 0.00 0.00 0.00 0.00 0.00 0.00 0.01 0.01 0.01 0.01 0.02 0.03 0.04 0.05 0.06 0.06 0.06 0.06 0.05 0.04 0.02 0.01 0.01 0.00 0.00 0.00 0.00 0.00 0.00 0.00 0.00 0.02 0.04 0.07 0.09 0.10 0.07 0.04 0.03 0.02 0.01
0.00 0.00 0.00 0.00 0.00 0.00 0.01 0.01 0.01 0.01 0.01 0.02 0.03 0.03 0.04 0.05 0.06 0.06 0.06 0.07 0.06 0.05 0.03 0.02 0.01 0.01 0.00 0.00 0.00 0.00 0.00 0.00 0.00 0.02 0.05 0.09 0.14 0.15 0.13 0.08 0.05 0.03 0.02
0.00 0.00 0.00 0.00 0.00 0.00 0.01 0.01 0.01 0.01 0.02 0.02 0.03 0.04 0.04 0.04 0.06 0.07 0.06 0.07 0.07 0.06 0.05 0.03 0.02 0.01 0.01 0.00 0.00 0.00 0.00 0.00 0.00 0.02 0.06 0.13 0.20 0.20 0.19 0.15 0.10 0.08 0.06
0.00 0.00 0.00 0.00 0.00 0.00 0.01 0.01 0.01 0.02 0.03 0.04 0.04 0.04 0.03 0.04 0.05 0.06 0.07 0.07 0.07 0.06 0.05 0.04 0.03 0.01 0.01 0.00 0.00 0.00 0.00 0.00 0.01 0.03 0.08 0.16 0.25 0.28 0.25 0.21 0.17 0.12 0.08
0.00 0.00 0.00 0.00 0.00 0.00 0.01 0.02 0.02 0.03 0.04 0.06 0.05 0.04 0.05 0.04 0.04 0.06 0.06 0.06 0.06 0.05 0.05 0.04 0.03 0.02 0.01 0.01 0.00 0.00 0.00 0.01 0.01 0.05 0.13 0.22 0.31 0.37 0.33 0.27 0.21 0.16 0.11
0.00 0.00 0.00 0.00 0.00 0.01 0.01 0.02 0.03 0.04 0.06 0.06 0.05 0.05 0.05 0.05 0.05 0.05 0.06 0.06 0.07 0.06 0.05 0.03 0.02 0.01 0.01 0.01 0.00 0.00 0.00 0.01 0.02 0.06 0.14 0.27 0.38 0.43 0.38 0.29 0.23 0.19 0.14
0.00 0.00 0.00 0.00 0.01 0.01 0.02 0.03 0.04 0.05 0.06 0.07 0.05 0.04 0.04 0.05 0.04 0.05 0.06 0.05 0.05 0.05 0.04 0.03 0.02 0.01 0.01 0.01 0.01 0.01 0.01 0.02 0.04 0.07 0.15 0.30 0.41 0.42 0.36 0.28 0.24 0.19 0.13
MSLP
1013.06 1013.08 1013.12 1013.15 1013.14 1013.06 1012.93 1012.74 1012.51 1012.25 1011.98 1011.69 1011.39 1011.08 1010.77 1010.49 1010.24 1010.07 1010.00 1010.03 1010.18 1010.41 1010.71 1011.04 1011.35 1011.63 1011.84 1012.00 1012.13 1012.23 1012.35 1012.48 1012.63 1012.79 1012.91 1012.97 1012.94 1012.79 1012.54 1012.21 1011.84 1011.48 1011.19
1013.39 1013.36 1013.35 1013.32 1013.24 1013.11 1012.93 1012.72 1012.51 1012.31 1012.11 1011.93 1011.73 1011.51 1011.27 1011.00 1010.73 1010.48 1010.31 1010.22 1010.24 1010.37 1010.58 1010.85 1011.13 1011.39 1011.61 1011.78 1011.92 1012.04 1012.17 1012.32 1012.49 1012.68 1012.84 1012.95 1012.98 1012.88 1012.67 1012.36 1011.99 1011.61 1011.26
1013.58 1013.55 1013.52 1013.45 1013.32 1013.14 1012.92 1012.70 1012.50 1012.34 1012.22 1012.12 1012.03 1011.90 1011.72 1011.48 1011.20 1010.91 1010.65 1010.46 1010.36 1010.38 1010.49 1010.68 1010.90 1011.12 1011.31 1011.47 1011.60 1011.72 1011.86 1012.02 1012.22 1012.45 1012.67 1012.85 1012.95 1012.94 1012.80 1012.55 1012.20 1011.82 1011.44
1013.68 1013.68 1013.65 1013.57 1013.42 1013.19 1012.93 1012.67 1012.46 1012.31 1012.24 1012.21 1012.19 1012.14 1012.02 1011.83 1011.57 1011.26 1010.95 1010.68 1010.50 1010.42 1010.43 1010.53 1010.68 1010.84 1010.99 1011.12 1011.23 1011.33 1011.46 1011.63 1011.85 1012.11 1012.39 1012.65 1012.84 1012.92 1012.87 1012.69 1012.40 1012.03 1011.64
1013.76 1013.79 1013.79 1013.71 1013.52 1013.26 1012.94 1012.64 1012.39 1012.22 1012.15 1012.15 1012.18 1012.19 1012.14 1012.00 1011.78 1011.48 1011.16 1010.86 1010.62 1010.47 1010.42 1010.44 1010.52 1010.61 1010.71 1010.78 1010.85 1010.92 1011.03 1011.18 1011.41 1011.70 1012.02 1012.34 1012.61 1012.78 1012.83 1012.73 1012.50 1012.18 1011.79
1013.84 1013.91 1013.92 1013.84 1013.63 1013.32 1012.95 1012.58 1012.27 1012.06 1011.97 1011.96 1012.01 1012.06 1012.07 1011.99 1011.81 1011.56 1011.27 1010.98 1010.72 1010.54 1010.44 1010.41 1010.43 1010.46 1010.50 1010.52 1010.53 1010.56 1010.62 1010.75 1010.95 1011.24 1011.58 1011.93 1012.26 1012.51 1012.63 1012.61 1012.45 1012.17 1011.81
1013.91 1014.00 1014.03 1013.94 1013.70 1013.35 1012.92 1012.48 1012.11 1011.84 1011.69 1011.66 1011.71 1011.78 1011.82 1011.79 1011.68 1011.49 1011.25 1011.00 1010.77 1010.60 1010.48 1010.42 1010.40 1010.40 1010.38 1010.35 1010.31 1010.27 1010.28 1010.35 1010.52 1010.77 1011.09 1011.45 1011.80 1012.09 1012.27 1012.32 1012.22 1012.00 1011.67
1013.97 1014.06 1014.08 1013.97 1013.71 1013.32 1012.84 1012.35 1011.91 1011.57 1011.37 1011.30 1011.32 1011.38 1011.44 1011.45 1011.40 1011.27 1011.10 1010.91 1010.73 1010.59 1010.49 1010.44 1010.41 1010.38 1010.33 1010.25 1010.16 1010.07 1010.01 1010.02 1010.11 1010.30 1010.58 1010.90 1011.24 1011.55 1011.76 1011.86 1011.82 1011.66 1011.38
1013.99 1014.06 1014.06 1013.93 1013.64 1013.22 1012.70 1012.17 1011.68 1011.29 1011.03 1010.90 1010.88 1010.92 1010.97 1010.99 1010.97 1010.90 1010.79 1010.66 1010.55 1010.46 1010.40 1010.38 1010.36 1010.33 1010.27 1010.17 1010.05 1009.91 1009.79 1009.73 1009.75 1009.87 1010.07 1010.34 1010.65 1010.93 1011.16 1011.29 1011.31 1011.21 1011.00
1013.97 1014.00 1013.96 1013.79 1013.48 1013.04 1012.51 1011.95 1011.43 1011.00 1010.69 1010.50 1010.42 1010.41 1010.42 1010.43 1010.42 1010.37 1010.30 1010.22 1010.17 1010.14 1010.14 1010.16 1010.18 1010.17 1010.13 1010.04 1009.90 1009.74 1009.58 1009.47 1009.42 1009.47 1009.60 1009.80 1010.05 1010.31 1010.54 1010.69 1010.75 1010.71 1010.58
1013.92 1013.89 1013.80 1013.59 1013.25 1012.80 1012.26 1011.70 1011.17 1010.71 1010.36 1010.11 1009.96 1009.87 1009.82 1009.77 1009.72 1009.66 1009.60 1009.56 1009.54 1009.57 1009.62 1009.70 1009.78 1009.82 1009.82 1009.76 1009.65 1009.50 1009.34 1009.20 1009.11 1009.10 1009.17 1009.32 1009.52 1009.74 1009.96 1010.12 1010.22 1010.24 1010.18
1013.88 1013.77 1013.61 1013.35 1012.99 1012.52 1011.99 1011.44 1010.91 1010.43 1010.04 1009.72 1009.49 1009.30 1009.15 1009.02 1008.90 1008.79 1008.71 1008.67 1008.68 1008.75 1008.86 1009.00 1009.13 1009.25 1009.31 1009.31 1009.25 1009.14 1009.01 1008.88 1008.79 1008.76 1008.80 1008.91 1009.07 1009.26 1009.45 1009.62 1009.74 1009.80 1009.81
1013.87 1013.67 1013.42 1013.11 1012.70 1012.23 1011.70 1011.16 1010.63 1010.14 1009.71 1009.33 1009.00 1008.70 1008.44 1008.20 1007.98 1007.80 1007.68 1007.62 1007.64 1007.73 1007.88 1008.07 1008.28 1008.46 1008.60 1008.68 1008.69 1008.65 1008.58 1008.50 1008.44 1008.42 1008.46 1008.55 1008.69 1008.86 1009.03 1009.18 1009.31 1009.39 1009.44
1013.88 1013.59 1013.26 1012.87 1012.42 1011.92 1011.40 1010.86 1010.34 1009.83 1009.36 1008.91 1008.49 1008.09 1007.71 1007.35 1007.03 1006.77 1006.58 1006.49 1006.50 1006.60 1006.78 1007.01 1007.27 1007.52 1007.73 1007.89 1007.99 1008.03 1008.04 1008.04 1008.04 1008.07 1008.13 1008.23 1008.36 1008.51 1008.65 1008.78 1008.88 1008.96 1009.01
1013.91 1013.52 1013.09 1012.63 1012.13 1011.61 1011.07 1010.54 1010.01 1009.50 1008.99 1008.48 1007.98 1007.48 1006.99 1006.53 1006.11 1005.77 1005.53 1005.39 1005.38 1005.47 1005.67 1005.92 1006.22 1006.51 1006.78 1007.01 1007.19 1007.32 1007.42 1007.50 1007.58 1007.67 1007.77 1007.89 1008.02 1008.15 1008.26 1008.34 1008.40 1008.44 1008.46
1013.91 1013.43 1012.91 1012.37 1011.82 1011.26 1010.72 1010.18 1009.65 1009.12 1008.59 1008.04 1007.47 1006.90 1006.32 1005.78 1005.29 1004.89 1004.59 1004.43 1004.39 1004.47 1004.66 1004.92 1005.22 1005.54 1005.84 1006.11 1006.35 1006.55 1006.73 1006.89 1007.05 1007.20 1007.35 1007.50 1007.63 1007.73 1007.80 1007.83 1007.82 1007.80 1007.77
1013.83 1013.27 1012.67 1012.06 1011.46 1010.87 1010.31 1009.77 1009.24 1008.71 1008.16 1007.58 1006.98 1006.36 1005.74 1005.14 1004.61 1004.17 1003.85 1003.65 1003.59 1003.65 1003.82 1004.06 1004.35 1004.66 1004.96 1005.25 1005.52 1005.76 1006.00 1006.22 1006.44 1006.66 1006.85 1007.02 1007.14 1007.22 1007.24 1007.21 1007.13 1007.03 1006.93
1013.64 1013.00 1012.34 1011.68 1011.03 1010.43 1009.86 1009.31 1008.79 1008.26 1007.71 1007.12 1006.51 1005.87 1005.23 1004.62 1004.08 1003.62 1003.29 1003.08 1003.00 1003.04 1003.17 1003.38 1003.63 1003.90 1004.18 1004.45 1004.72 1004.99 1005.25 1005.52 1005.78 1006.03 1006.26 1006.44 1006.56 1006.61 1006.58 1006.49 1006.35 1006.18 1006.02
1013.31 1012.63 1011.92 1011.22 1010.55 1009.92 1009.35 1008.81 1008.29 1007.77 1007.23 1006.65 1006.04 1005.41 1004.78 1004.18 1003.65 1003.20 1002.87 1002.65 1002.56 1002.57 1002.66 1002.82 1003.02 1003.24 1003.47 1003.72 1003.97 1004.23 1004.50 1004.79 1005.08 1005.35 1005.59 1005.78 1005.90 1005.93 1005.87 1005.73 1005.54 1005.33 1005.13
1012.88 1012.16 1011.42 1010.70 1010.02 1009.39 1008.82 1008.28 1007.77 1007.26 1006.72 1006.16 1005.56 1004.95 1004.34 1003.76 1003.25 1002.82 1002.49 1002.28 1002.17 1002.15 1002.21 1002.32 1002.46 1002.63 1002.81 1003.01 1003.24 1003.48 1003.76 1004.05 1004.35 1004.64 1004.89 1005.08 1005.20 1005.22 1005.15 1005.00 1004.80 1004.58 1004.39
1012.38 1011.64 1010.89 1010.17 1009.48 1008.86 1008.28 1007.75 1007.24 1006.72 1006.19 1005.63 1005.04 1004.45 1003.85 1003.30 1002.81 1002.39 1002.08 1001.86 1001.74 1001.69 1001.71 1001.78 1001.88 1002.00 1002.14 1002.31 1002.51 1002.75 1003.02 1003.31 1003.62 1003.92 1004.18 1004.39 1004.51 1004.55 1004.49 1004.36 1004.19 1004.00 1003.85
1011.87 1011.13 1010.38 1009.66 1008.99 1008.36 1007.78 1007.24 1006.72 1006.19 1005.64 1005.07 1004.49 1003.89 1003.31 1002.77 1002.28 1001.88 1001.57 1001.35 1001.21 1001.14 1001.13 1001.16 1001.23 1001.32 1001.44 1001.60 1001.79 1002.02 1002.29 1002.59 1002.91 1003.22 1003.50 1003.72 1003.87 1003.93 1003.92 1003.85 1003.74 1003.63 1003.56
1011.40 1010.67 1009.94 1009.23 1008.56 1007.93 1007.34 1006.78 1006.23 1005.67 1005.10 1004.51 1003.90 1003.29 1002.71 1002.16 1001.68 1001.28 1000.96 1000.73 1000.57 1000.49 1000.46 1000.47 1000.52 1000.60 1000.71 1000.86 1001.06 1001.30 1001.58 1001.90 1002.23 1002.56 1002.86 1003.11 1003.29 1003.41 1003.46 1003.47 1003.45 1003.45 1003.50
1011.01 1010.30 1009.59 1008.89 1008.23 1007.59 1006.98 1006.39 1005.80 1005.20 1004.58 1003.95 1003.32 1002.69 1002.09 1001.53 1001.05 1000.64 1000.31 1000.07 999.90 999.80 999.75 999.75 999.79 999.87 999.99 1000.15 1000.36 1000.61 1000.91 1001.24 1001.59 1001.94 1002.26 1002.55 1002.78 1002.96 1003.09 1003.20 1003.30 1003.42 1003.60
1010.70 1010.02 1009.32 1008.64 1007.98 1007.33 1006.69 1006.06 1005.42 1004.78 1004.12 1003.45 1002.78 1002.13 1001.52 1000.96 1000.47 1000.05 999.72 999.47 999.29 999.18 999.12 999.11 999.15 999.22 999.34 999.51 999.73 999.99 1000.30 1000.64 1001.01 1001.37 1001.72 1002.04 1002.32 1002.57 1002.79 1003.00 1003.22 1003.47 1003.77
1010.45 1009.79 1009.12 1008.45 1007.79 1007.12 1006.45 1005.78 1005.10 1004.41 1003.72 1003.02 1002.33 1001.68 1001.06 1000.51 1000.03 999.63 999.30 999.05 998.87 998.75 998.68 998.65 998.67 998.74 998.85 999.00 999.21 999.47 999.78 1000.12 1000.48 1000.85 1001.22 1001.58 1001.92 1002.23 1002.54 1002.85 1003.17 1003.54 1003.95
Thickness
5744 5743 5740 5738 5737 5733 5730 5728 5723 5721 5722 5720 5716 5714 5713 5713 5713 5712 5711 5708 5705 5705 5705 5707 5707 5708 5708 5709 5710 5710 5710 5710 5711 5711 5712 5717 5720 5723 5726 5728 5729 5731 5732
5734 5732 5730 5728 5726 5723 5721 5719 5716 5713 5713 5712 5710 5709 5708 5707 5707 5707 5705 5704 5702 5701 5702 5703 5703 5703 5704 5704 5705 5705 5704 5705 5706 5705 5703 5705 5711 5717 5721 5723 5724 5726 5727
5721 5719 5718 5716 5714 5713 5711 5711 5709 5707 5706 5705 5704 5703 5701 5700 5700 5700 5699 5699 5699 5698 5698 5699 5698 5698 5699 5699 5700 5700 5699 5698 5700 5702 5700 5697 5698 5704 5712 5716 5719 5720 5722
5712 5708 5706 5705 5704 5703 5703 5703 5700 5699 5698 5697 5695 5693 5691 5689 5690 5691 5692 5693 5694 5694 5694 5693 5693 5693 5694 5694 5694 5695 5695 5694 5694 5695 5697 5698 5698 5697 5700 5708 5712 5715 5716
5703 5700 5698 5697 5696 5695 5693 5693 5691 5689 5689 5688 5686 5684 5682 5682 5682 5683 5684 5685 5686 5686 5687 5687 5687 5688 5688 5689 5689 5689 5689 5690 5690 5691 5692 5692 5692 5694 5693 5696 5702 5707 5711
5696 5693 5691 5688 5686 5685 5684 5682 5680 5679 5678 5677 5675 5674 5673 5672 5672 5672 5673 5673 5674 5676 5677 5678 5679 5681 5682 5683 5683 5684 5684 5685 5686 5688 5689 5689 5689 5689 5689 5690 5694 5699 5705
5687 5683 5681 5679 5677 5676 5675 5673 5670 5668 5667 5665 5663 5662 5661 5661 5660 5660 5660 5660 5661 5663 5664 5666 5668 5670 5672 5674 5675 5676 5677 5679 5680 5682 5684 5685 5687 5688 5687 5687 5689 5692 5698
5679 5676 5674 5671 5669 5667 5665 5661 5658 5656 5655 5653 5651 5649 5647 5646 5646 5646 5645 5646 5646 5648 5650 5652 5655 5658 5660 5663 5665 5667 5669 5671 5673 5675 5677 5679 5681 5682 5684 5684 5684 5686 5690
5672 5668 5666 5663 5659 5655 5652 5648 5644 5642 5640 5638 5636 5634 5632 5631 5630 5629 5628 5629 5630 5632 5634 5636 5639 5642 5645 5649 5652 5655 5658 5661 5664 5667 5669 5671 5674 5676 5678 5679 5680 5680 5681
5663 5660 5657 5653 5649 5645 5640 5635 5630 5626 5623 5620 5618 5618 5616 5614 5613 5611 5609 5610 5611 5613 5615 5618 5621 5624 5628 5632 5636 5641 5645 5649 5652 5655 5658 5662 5665 5668 5671 5673 5675 5677 5678
5653 5649 5645 5641 5635 5630 5625 5620 5616 5611 5607 5605 5602 5600 5599 5597 5595 5593 5592 5592 5593 5594 5595 5599 5602 5606 5611 5616 5619 5625 5630 5634 5639 5643 5647 5651 5654 5658 5662 5665 5668 5671 5673
5642 5638 5632 5627 5621 5616 5611 5606 5602 5598 5595 5592 5589 5587 5585 5583 5580 5580 5580 5579 5578 5578 5579 5581 5583 5587 5592 5597 5602 5607 5613 5618 5623 5629 5634 5640 5644 5648 5652 5656 5660 5664 5667
5631 5625 5618 5612 5607 5602 5597 5593 5589 5585 5582 5579 5576 5574 5573 5571 5571 5570 5570 5569 5568 5567 5567 5567 5568 5571 5575 5579 5584 5589 5595 5600 5607 5614 5620 5627 5632 5637 5642 5646 5651 5655 5659
5619 5613 5606 5600 5595 5589 5584 5580 5577 5573 5569 5565 5562 5560 5560 5561 5562 5562 5561 5560 5560 5559 5558 5558 5558 5559 5561 5564 5568 5572 5578 5583 5590 5598 5605 5613 5620 5626 5632 5637 5643 5647 5651
5610 5603 5597 5590 5584 5579 5574 5570 5566 5561 5556 5552 5550 5549 5549 5549 5549 5550 5551 5551 5551 5552 5552 5551 5551 5551 5551 5553 5555 5558 5562 5567 5574 5581 5589 5598 5607 5615 5621 5628 5634 5639 5644
5601 5596 5589 5582 5576 5570 5566 5561 5555 5550 5544 5539 5537 5535 5534 5534 5535 5537 5538 5539 5541 5542 5542 5543 5544 5544 5546 5548 5549 5549 5551 5554 5559 5565 5574 5583 5594 5603 5611 5620 5626 5632 5638
5594 5587 5580 5574 5568 5562 5556 5550 5545 5539 5532 5527 5524 5521 5519 5519 5520 5522 5524 5526 5528 5530 5532 5534 5536 5538 5540 5541 5542 5542 5542 5544 5546 5552 5559 5570 5582 5591 5600 5610 5618 5624 5631
5587 5580 5573 5567 5561 5555 5548 5541 5535 5528 5522 5517 5512 5509 5506 5505 5506 5506 5508 5511 5514 5516 5520 5524 5528 5530 5533 5534 5535 5536 5536 5536 5538 5542 5548 5557 5568 5579 5589 5599 5608 5617 5625
5579 5572 5568 5562 5555 5548 5542 5534 5527 5520 5513 5508 5503 5499 5495 5493 5493 5493 5495 5497 5500 5503 5508 5513 5518 5521 5525 5528 5529 5530 5530 5531 5532 5535 5541 5548 5558 5569 5578 5589 5600 5610 5618
5574 5569 5564 5557 5550 5544 5536 5528 5521 5513 5506 5500 5494 5489 5485 5483 5482 5482 5483 5485 5488 5493 5497 5502 5508 5513 5518 5522 5523 5524 5525 5526 5528 5530 5535 5542 5550 5560 5569 5580 5592 5602 5612
5571 5566 5559 5553 5547 5540 5531 5523 5515 5508 5501 5494 5487 5482 5478 5475 5474 5474 5474 5476 5479 5483 5487 5493 5499 5504 5510 5515 5518 5519 5520 5523 5524 5527 5531 5537 5544 5552 5562 5572 5585 5596 5604
5569 5563 5556 5551 5545 5537 5527 5519 5512 5505 5497 5489 5483 5478 5473 5470 5470 5468 5469 5470 5472 5475 5479 5484 5490 5496 5503 5508 5513 5515 5517 5519 5521 5524 5528 5532 5538 5547 5556 5566 5577 5586 5595
5565 5560 5554 5549 5543 5535 5524 5516 5509 5501 5494 5486 5480 5475 5471 5467 5465 5463 5464 5465 5466 5469 5473 5478 5484 5491 5497 5502 5507 5511 5514 5516 5518 5521 5524 5528 5533 5541 5550 5561 5570 5579 5590
5564 5559 5553 5548 5542 5534 5524 5515 5507 5499 5491 5485 5479 5475 5470 5467 5464 5462 5462 5462 5464 5467 5470 5475 5481 5487 5493 5499 5503 5507 5511 5513 5515 5518 5521 5524 5529 5536 5547 5556 5565 5576 5586
5562 5557 5551 5546 5540 5533 5525 5516 5507 5499 5492 5486 5481 5476 5472 5468 5466 5464 5463 5463 5465 5467 5470 5474 5479 5485 5491 5498 5502 5505 5508 5511 5514 5515 5518 5522 5527 5534 5543 5553 5563 5572 5580
5561 5556 5551 5546 5540 5533 5526 5518 5509 5500 5494 5488 5483 5479 5475 5472 5470 5468 5468 5467 5466 5468 5470 5473 5479 5485 5491 5496 5499 5502 5505 5507 5510 5513 5518 5522 5527 5533 5542 5551 5561 5568 5576